Hourly Data Report for March 01, 2017

All times are specified in Local Standard Time (LST). Add 1 hour to adjust for Daylight Saving Time where and when it is observed.

TORONTO CITY
ONTARIO

43°40'00.000" N
79°24'00.000" W
112.50 m
6158355
71508
XTO

Download Data

Hourly Data (March 2017)
Hourly Data Report for March 1, 2017
TIME Temp Definition
°C
Dew Point Definition
°C
Rel Hum Definition
%
Wind Dir Definition
10's deg

Wind Spd Definition
km/h
Visibility Definition
km
Stn Press Definition
kPa
Hmdx Definition


Wind Chill Definition


Weather Definition


00:00 10.6 7.1 79 LegendMM LegendMM   99.16     LegendNANA
01:00 9.8 8.5 92 LegendMM LegendMM   99.05     LegendNANA
02:00 9.9 9.0 94 LegendMM LegendMM   98.83     LegendNANA
03:00 9.8 8.9 94 LegendMM LegendMM   98.61     LegendNANA
04:00 9.3 8.5 95 LegendMM LegendMM   98.40     LegendNANA
05:00 10.6 9.8 95 LegendMM LegendMM   98.35     LegendNANA
06:00 11.3 10.4 95 LegendMM LegendMM   98.25     LegendNANA
07:00 11.1 10.2 94 LegendMM LegendMM   98.21     LegendNANA
08:00 10.4 9.3 93 LegendMM LegendMM   98.03     LegendNANA
09:00 10.5 9.4 93 LegendMM LegendMM   98.12     LegendNANA
10:00 12.3 9.8 85 LegendMM LegendMM   97.99     LegendNANA
11:00 12.2 8.8 80 LegendMM LegendMM   97.89     LegendNANA
12:00 11.9 8.2 78 LegendMM LegendMM   97.92     LegendNANA
13:00 11.1 7.7 80 LegendMM LegendMM   97.87     LegendNANA
14:00 12.6 8.8 78 LegendMM LegendMM   97.83     LegendNANA
15:00 12.8 8.4 74 LegendMM LegendMM   97.73     LegendNANA
16:00 11.7 7.5 76 LegendMM LegendMM   97.66     LegendNANA
17:00 11.4 8.7 84 LegendMM LegendMM   97.59     LegendNANA
18:00 9.8 7.1 83 LegendMM LegendMM   97.56     LegendNANA
19:00 11.1 6.9 75 LegendMM LegendMM   97.65     LegendNANA
20:00 8.1 3.3 72 LegendMM LegendMM   97.89     LegendNANA
21:00 5.6 0.3 69 LegendMM LegendMM   98.07     LegendNANA
22:00 3.6 -2.6 64 LegendMM LegendMM   98.20     LegendNANA
23:00 1.5 -4.5 64 LegendMM LegendMM   98.32     LegendNANA

Notes on Data Quality.

Legend

  • E = Estimated
  • M = Missing
  • NA = Not Available
Date modified: